Weather Roundup
Issued by NWS Corpus Christi, TX

Home | Current Version | Previous Version | Text Only | Print | Product List | Glossary On
Versions: 1 2 3 4 5 6 7 8 9 10 11 12 13 14 15 16 17 18 19 20 21 22 23 24 25 26 27 28 29 30 31 32 33 34 35 36 37 38 39 40 41 42 43 44 45 46 47 48 49 50
615
ASUS44 KCRP 200810
HRRCRP

SOUTH TEXAS REGIONAL WEATHER ROUNDUP
NATIONAL WEATHER SERVICE CORPUS CHRISTI TX
300 AM CDT WED SEP 20 2017


TXZ229>244-200900-
...CORPUS CHRISTI AREA OBSERVATIONS...

CITY           SKY/WX    TMP DP  RH WIND       PRES   REMARKS
CORPUS CHRISTI MOCLDY    79  77  94 S8        29.87F
NAS CORPUS CHR PTCLDY    84  78  82 S14       29.87R HX  95
ROCKPORT       PTCLDY    83  76  79 S7        29.87F HX  91
KINGSVILLE ARP CLOUDY    81  79  95 SE5       29.88S HX  90
KINGSVILLE NAS MOCLDY    80  79  96 CALM      29.88R
ALICE          PTCLDY    80  76  87 S8        29.87S
$$

...VICTORIA AREA OBSERVATIONS...

CITY           SKY/WX    TMP DP  RH WIND       PRES   REMARKS
PORT LAVACA    MOCLDY    77  74  90 S5        29.89F
VICTORIA       PTCLDY    77  75  93 S7        29.88F
BEEVILLE       FAIR      78  78 100 SE5       29.88S
PLEASANTON     PTCLDY    78  74  87 SE7       29.88S
SAN ANTONIO    MOCLDY    78  73  84 S10       29.89F
$$

...LAREDO AREA OBSERVATIONS...

CITY           SKY/WX    TMP DP  RH WIND       PRES   REMARKS
LAREDO         MOCLDY    83  72  69 SE17      29.85S
COTULLA        MOCLDY    80  73  79 SE9       29.85F
DEL RIO        CLEAR     73  67  81 E3        29.85F
MCALLEN        MOCLDY    83  77  82 SE12      29.86F HX  92
HEBBRONVILLE   PTCLDY    78  73  85 S7        29.88S
$$

...OTHER TEXAS OBSERVATIONS...

CITY           SKY/WX    TMP DP  RH WIND       PRES   REMARKS
BROWNSVILLE    CLEAR     80  78  94 SE9       29.88S
HOUSTON        MOCLDY    80  76  87 S8        29.89F
COL. STATION   CLOUDY    79  76  90 S9        29.89F
AUSTIN         PTCLDY    78  75  90 S8        29.88F
WACO           CLEAR     80  73  79 S14G23    29.87S
FORT WORTH     MOCLDY    83  72  69 S20       29.82S
WICHITA FALLS  CLEAR     74  68  81 S10       29.78F
LUBBOCK        PTCLDY    75  59  57 S18G25    29.86R
EL PASO        PTCLDY    80  47  31 VRB3      29.97R
$$

...MARINE OBSERVATIONS...

STATION/POSITION TIME  SKY/WX   TEMP    WIND        PRES    VSBY  WAVE   SWELL
                                AIR SEA DIR/SP/G                  HT/PER HT/PER
                 (UTC)          (F)     (DEG/KT/KT) (MB)    (MI)  (FT/S) (FT/S)
PORT ARANSAS     NOT AVBL
BUOY 90 E PORT A 0650            83 83  130/ 16/ 19 1011.9          2/ 5
BUOY 200 E PT IS 0750            84 84  140/ 14/ 16 1012.9F         2/ 3
BUOY 15 E GALVES 0650            82 83  170/ 16/ 19 1012.3          2/ 4
$$




USA.gov is the U.S. government's official web portal to all federal, state and local government web resources and services.